Flag for Germany Weather past 2 weeks in Leutkirch im Allgäu, Baden-Württemberg, Germany

Now
38 °F

Light rain. Haze.


Feels Like: 33 °F
Forecast: 34 / 38 °F
Wind: 6 mph from West

Location: Kempten

Current Time: Oct 22, 2014 at 3:01:59 PM

Latest Report: Oct 22, 2014 at 2:00 PM


Visibility: 10 mi

Pressure: 30.14 "Hg

Humidity: 84%

Dew point: 33 °F

Location of Leutkirch im AllgäuLocation

Historic Weather in Leutkirch im Allgäu — Graph

°F

Leutkirch im Allgäu temperature yesterday

Maximum temperature yesterday: 58 °F (at 12:00 AM)
Minimum temperature yesterday: 42 °F (at 10:00 PM)
Average temperature yesterday: 54 °F

Past Weeks' High & Low Weather Summary

 TemperatureHumidityPressure
High79 °F (Oct 9, 2:00 PM)99% (Oct 18, 3:00 AM)30.28 "Hg (Oct 18, 3:00 AM)
Low38 °F (Oct 22, 2:00 PM)25% (Oct 9, 4:00 PM)29.69 "Hg (Oct 21, 8:00 PM)
Average56 °F81%29.96 "Hg
* Reported Oct 7 2:00 PM — Oct 22 2:00 PM, Leutkirch im Allgäu, Weather by CustomWeather, © 2014

Note: Actual official high and low records may vary slightly from our data, if they occured in-between our weather recording intervals... More about our weather records

Advertising

Leutkirch im Allgäu weather history for previous 24 hours

 ConditionsComfort  
Time TempWeatherWind HumidityBarometerVisibility
2:00 PM
Oct 22
38 °FLight rain. Haze.6 mph84%30.14 "Hg10 mi
1:00 PM39 °FLight rain. Overcast.5 mph84%30.13 "Hg11 mi
12:00 PM39 °FDrizzle. Overcast.7 mph80%30.14 "Hg16 mi
10:00 AM38 °FLight freezing rain. Overcast.6 mph78%30.11 "Hg13 mi
9:00 AM39 °FDrizzle. Overcast.5 mph79%30.10 "Hg22 mi
8:00 AM38 °FLight rain. Overcast.5 mph83%30.08 "Hg17 mi
7:00 AM40 °FOvercast.6 mph75%30.02 "Hg34 mi
6:00 AM40 °FPassing clouds.6 mph79%29.99 "Hg37 mi
4:00 AM41 °FPassing clouds.3 mph79%30.02 "Hg31 mi
3:00 AM42 °FRain. Passing clouds.6 mph81%30.03 "Hg3 mi
2:00 AM43 °FOvercast.6 mph78%30.03 "Hg28 mi
1:00 AM42 °FPassing clouds.6 mph83%30.05 "Hg31 mi
12:00 AM43 °FDrizzle. Overcast.5 mph85%30.03 "Hg22 mi
11:00 PM
Oct 21
43 °FLight rain. Overcast.7 mph85%30.03 "Hg6 mi
10:00 PM42 °FLight rain. Overcast.6 mph84%29.96 "Hg28 mi
9:00 PM50 °FRain. Overcast.12 mph87%29.73 "Hg1 mi
8:00 PM54 °FPassing clouds.3 mph83%29.69 "Hg34 mi
7:00 PM56 °FDrizzle. Overcast.3 mph82%29.73 "Hg22 mi
6:00 PM57 °FOvercast.3 mph78%29.75 "Hg37 mi
4:00 PM57 °FOvercast.2 mph87%29.80 "Hg28 mi
3:00 PM57 °FLight rain. Overcast.3 mph88%29.85 "Hg6 mi
Weather by CustomWeather, © 2014

See weather overviewHow to use our weather pages